Weather in Zherelevo

Russia / Kaluga Oblast     54°11′32″N   33°43′17″E
temp.,
°C
wind,
m/s
gust,
m/s
humid.,
%
clouds,
%
prec.,
mm/h
press.,
hPa
HPBL,
m
17 may, mon
mon1700:00+13e228593 0.0 101221
03:00+11e249069 0.0 101268
06:00+12e2887100 0.0 1011169
09:00+18e5136957 0.0 1010608
12:00+23e7106090 0.5 10071031
15:00+26ese61248100 0.5 10062488
18:00+23se5125885 0.0 10051290
21:00+19ese41370100 0.0 1005549
18 may, tue
tue1800:00+17se51381100 0.0 1004479
03:00+16ese4118932 0.0 1004328
06:00+16se41291100 0.0 1005425
09:00+20sse51075100 0.0 1005758
12:00+23sse6959100 0.1 10051826
15:00+22sse356992 1.9 10051144
18:00+18sse4986100 2.3 1004718
21:00+15se2291100 5.2 100524
19 may, wed
wed1900:00+14se2795100 0.0 1004164
03:00+14se2597100 0.0 1004153
06:00+14se3798100 0.0 1005247
09:00+17se4784100 0.0 1005656
12:00+19sse5672100 0.9 10051161
15:00+21s575574 1.2 10061806
18:00+19sse4769100 0.2 1006927
21:00+15sse2290100 0.4 100718
20 may, thu
thu2000:00+13se1194100 0.1 100711
03:00+12sw0095100 0.1 100610
06:00+12wsw2697100 0.8 1005333
09:00+12sw1297100 3.9 1006131
12:00+17ssw3477100 1.2 10051097
15:00+17ssw4776100 3.2 1005774
18:00+16sw59815 1.1 1006880
21:00+11wsw41191100 1.6 1010616
21 may, fri
fri2100:00+10sw41093100 0.0 1012458
03:00+9sw3895100 0.0 1014281
06:00+10sw259181 0.0 1015195
09:00+11s2284100 0.1 1017254
12:00+11se1290100 0.2 1018116
15:00+12ese1286100 0.6 1017318
18:00+11wnw1198100 1.7 1017115
21:00+11nnw1198100 1.8 101839